• în România
  • Lista ţărilor
  • Pe 7 zile
  • Temperatura apei
  • Hartă satelitară
  • Meteo pe hartă
  • Widget-uri
  • user-avatar
    Intrare

    Meteo pe oră la Sveti Vlas

    Astăzi, 18 Octombrie, Miercuri

    Timp Temperatura Precipitaţii Vânt Presiune Umiditate
    00:00 +18°C° 0 mm 1 m/s 761 mmHg 56%
    01:00 +18°C° 0 mm 1 m/s 761 mmHg 57%
    02:00 +16°C° 0 mm 1 m/s 761 mmHg 60%
    03:00 +15°C° 0 mm 0 m/s 761 mmHg 61%
    04:00 +15°C° 0 mm 0 m/s 761 mmHg 62%
    05:00 +15°C° 0 mm 0 m/s 761 mmHg 63%
    06:00 +16°C° 0 mm 0 m/s 761 mmHg 61%
    07:00 +16°C° 0 mm 0 m/s 761 mmHg 59%
    08:00 +20°C° 0 mm 1 m/s 761 mmHg 53%
    09:00 +22°C° 0 mm 1 m/s 761 mmHg 47%
    10:00 +24°C° 0 mm 1 m/s 760 mmHg 41%
    11:00 +26°C° 0 mm 1 m/s 760 mmHg 35%
    12:00 +26°C° 0 mm 1 m/s 760 mmHg 33%
    13:00 +27°C° 0 mm 2 m/s 760 mmHg 31%
    14:00 +27°C° 0 mm 2 m/s 759 mmHg 29%
    15:00 +26°C° 0 mm 2 m/s 759 mmHg 34%
    16:00 +24°C° 0 mm 2 m/s 759 mmHg 39%
    17:00 +21°C° 0 mm 2 m/s 758 mmHg 44%
    18:00 +20°C° 0 mm 2 m/s 758 mmHg 48%
    19:00 +19°C° 0 mm 2 m/s 758 mmHg 52%
    20:00 +17°C° 0 mm 2 m/s 758 mmHg 57%
    21:00 +17°C° 0 mm 2 m/s 758 mmHg 58%
    22:00 +16°C° 0 mm 1 m/s 758 mmHg 59%
    23:00 +16°C° 0 mm 1 m/s 758 mmHg 61%

    Mâine, 19 Octombrie, Joi

    Timp Temperatura Precipitaţii Vânt Presiune Umiditate
    00:00 +16°C° 0 mm 1 m/s 758 mmHg 62%
    01:00 +15°C° 0 mm 1 m/s 758 mmHg 62%
    02:00 +15°C° 0 mm 1 m/s 758 mmHg 63%
    03:00 +15°C° 0 mm 1 m/s 757 mmHg 63%
    04:00 +15°C° 0 mm 1 m/s 757 mmHg 62%
    05:00 +14°C° 0 mm 1 m/s 757 mmHg 62%
    06:00 +15°C° 0 mm 1 m/s 757 mmHg 59%
    07:00 +16°C° 0 mm 1 m/s 757 mmHg 56%
    08:00 +18°C° 0 mm 1 m/s 757 mmHg 53%
    09:00 +20°C° 0 mm 1 m/s 757 mmHg 46%
    10:00 +23°C° 0 mm 1 m/s 757 mmHg 39%
    11:00 +25°C° 0 mm 1 m/s 757 mmHg 32%
    12:00 +26°C° 0 mm 2 m/s 757 mmHg 31%
    13:00 +26°C° 0 mm 2 m/s 757 mmHg 29%
    14:00 +27°C° 0 mm 2 m/s 756 mmHg 28%
    15:00 +26°C° 0 mm 2 m/s 756 mmHg 33%
    16:00 +24°C° 0 mm 2 m/s 756 mmHg 39%
    17:00 +21°C° 0 mm 2 m/s 756 mmHg 45%
    18:00 +20°C° 0 mm 2 m/s 756 mmHg 51%
    19:00 +19°C° 0 mm 2 m/s 756 mmHg 57%
    20:00 +18°C° 0 mm 2 m/s 756 mmHg 63%
    21:00 +17°C° 0 mm 2 m/s 756 mmHg 65%
    22:00 +17°C° 0 mm 2 m/s 756 mmHg 67%
    23:00 +16°C° 0 mm 2 m/s 756 mmHg 68%

    Poimâine, 20 Octombrie, Vineri

    Timp Temperatura Precipitaţii Vânt Presiune Umiditate
    00:00 +16°C° 0 mm 1 m/s 756 mmHg 68%
    01:00 +16°C° 0 mm 1 m/s 756 mmHg 67%
    02:00 +16°C° 0 mm 1 m/s 756 mmHg 66%
    03:00 +15°C° 0 mm 1 m/s 756 mmHg 64%
    04:00 +15°C° 0 mm 1 m/s 756 mmHg 62%
    05:00 +15°C° 0 mm 1 m/s 756 mmHg 60%
    06:00 +16°C° 0 mm 1 m/s 756 mmHg 57%
    07:00 +18°C° 0 mm 1 m/s 756 mmHg 54%
    08:00 +18°C° 0 mm 1 m/s 756 mmHg 51%
    09:00 +21°C° 0 mm 1 m/s 756 mmHg 45%
    10:00 +23°C° 0 mm 1 m/s 757 mmHg 38%
    11:00 +26°C° 0 mm 1 m/s 757 mmHg 32%
    12:00 +26°C° 0 mm 1 m/s 756 mmHg 31%
    13:00 +27°C° 0 mm 1 m/s 756 mmHg 29%
    14:00 +28°C° 0 mm 1 m/s 756 mmHg 28%
    15:00 +26°C° 0 mm 1 m/s 756 mmHg 32%
    16:00 +25°C° 0 mm 2 m/s 756 mmHg 36%
    17:00 +23°C° 0 mm 2 m/s 756 mmHg 40%
    18:00 +21°C° 0 mm 2 m/s 756 mmHg 43%
    19:00 +20°C° 0 mm 2 m/s 756 mmHg 46%
    20:00 +19°C° 0 mm 2 m/s 756 mmHg 50%
    21:00 +19°C° 0 mm 1 m/s 757 mmHg 51%
    22:00 +19°C° 0 mm 1 m/s 757 mmHg 52%
    23:00 +19°C° 0 mm 1 m/s 757 mmHg 54%

    21 Octombrie, Sâmbătă

    Timp Temperatura Precipitaţii Vânt Presiune Umiditate
    00:00 +18°C° 0 mm 1 m/s 757 mmHg 55%
    01:00 +18°C° 0 mm 1 m/s 757 mmHg 56%
    02:00 +18°C° 0 mm 1 m/s 757 mmHg 58%
    03:00 +16°C° 0 mm 1 m/s 757 mmHg 60%
    04:00 +16°C° 0 mm 2 m/s 757 mmHg 61%
    05:00 +16°C° 0 mm 2 m/s 757 mmHg 63%
    06:00 +16°C° 0 mm 2 m/s 757 mmHg 62%
    07:00 +17°C° 0 mm 2 m/s 757 mmHg 60%
    08:00 +17°C° 0 mm 3 m/s 757 mmHg 59%
    09:00 +19°C° 0 mm 3 m/s 757 mmHg 54%
    10:00 +21°C° 0 mm 3 m/s 758 mmHg 48%
    11:00 +24°C° 0 mm 3 m/s 758 mmHg 42%
    12:00 +24°C° 0 mm 3 m/s 757 mmHg 41%
    13:00 +25°C° 0 mm 3 m/s 757 mmHg 40%
    14:00 +25°C° 0 mm 4 m/s 757 mmHg 38%
    15:00 +23°C° 0 mm 4 m/s 757 mmHg 45%
    16:00 +22°C° 0 mm 4 m/s 757 mmHg 51%
    17:00 +20°C° 0 mm 4 m/s 757 mmHg 57%
    18:00 +19°C° 0 mm 4 m/s 757 mmHg 66%
    19:00 +18°C° 0 mm 4 m/s 758 mmHg 75%
    20:00 +15°C° 0 mm 4 m/s 758 mmHg 85%
    21:00 +15°C° 0 mm 4 m/s 758 mmHg 88%
    22:00 +14°C° 0 mm 4 m/s 758 mmHg 91%
    23:00 +14°C° 0 mm 4 m/s 758 mmHg 95%

    22 Octombrie, Duminică

    Timp Temperatura Precipitaţii Vânt Presiune Umiditate
    00:00 +14°C° 0 mm 4 m/s 758 mmHg 95%
    01:00 +14°C° 0 mm 4 m/s 758 mmHg 94%
    02:00 +14°C° 0 mm 4 m/s 758 mmHg 94%
    03:00 +14°C° 0 mm 4 m/s 758 mmHg 93%
    04:00 +14°C° 0 mm 4 m/s 758 mmHg 93%
    05:00 +14°C° 0 mm 4 m/s 758 mmHg 93%
    06:00 +14°C° 0 mm 4 m/s 758 mmHg 91%
    07:00 +14°C° 0 mm 4 m/s 758 mmHg 89%
    08:00 +16°C° 0 mm 3 m/s 758 mmHg 86%
    09:00 +17°C° 0 mm 3 m/s 758 mmHg 79%
    10:00 +18°C° 0 mm 3 m/s 758 mmHg 72%
    11:00 +19°C° 0 mm 3 m/s 758 mmHg 64%
    12:00 +20°C° 0 mm 4 m/s 757 mmHg 61%
    13:00 +21°C° 0 mm 4 m/s 757 mmHg 57%
    14:00 +21°C° 0 mm 4 m/s 756 mmHg 54%
    15:00 +20°C° 0 mm 4 m/s 756 mmHg 59%
    16:00 +19°C° 0 mm 4 m/s 756 mmHg 65%
    17:00 +18°C° 0 mm 4 m/s 756 mmHg 71%
    18:00 +17°C° 0 mm 3 m/s 756 mmHg 79%
    19:00 +16°C° 0 mm 3 m/s 756 mmHg 86%
    20:00 +14°C° 0 mm 3 m/s 756 mmHg 94%
    21:00 +14°C° 0 mm 3 m/s 756 mmHg 95%
    22:00 +13°C° 0 mm 3 m/s 756 mmHg 96%
    23:00 +13°C° 0 mm 3 m/s 756 mmHg 97%

    23 Octombrie, Luni

    Timp Temperatura Precipitaţii Vânt Presiune Umiditate
    00:00 +13°C° 0 mm 3 m/s 755 mmHg 96%
    01:00 +14°C° 0 mm 3 m/s 755 mmHg 96%
    02:00 +14°C° 0 mm 3 m/s 755 mmHg 95%
    03:00 +14°C° 0 mm 3 m/s 754 mmHg 95%
    04:00 +14°C° 0 mm 3 m/s 754 mmHg 95%
    05:00 +14°C° 0 mm 3 m/s 754 mmHg 95%
    06:00 +14°C° 0 mm 3 m/s 754 mmHg 92%
    07:00 +14°C° 0 mm 3 m/s 754 mmHg 88%
    08:00 +15°C° 0 mm 4 m/s 754 mmHg 85%
    09:00 +15°C° 0 mm 4 m/s 754 mmHg 79%
    10:00 +17°C° 0 mm 4 m/s 754 mmHg 73%
    11:00 +18°C° 0 mm 4 m/s 754 mmHg 68%
    12:00 +17°C° 0 mm 5 m/s 753 mmHg 66%
    13:00 +17°C° 0 mm 5 m/s 753 mmHg 65%
    14:00 +19°C° 0 mm 5 m/s 752 mmHg 64%
    15:00 +17°C° 0 mm 5 m/s 752 mmHg 68%
    16:00 +16°C° 0 mm 5 m/s 752 mmHg 72%
    17:00 +15°C° 0 mm 5 m/s 752 mmHg 76%
    18:00 +15°C° 0 mm 5 m/s 752 mmHg 79%
    19:00 +14°C° 0 mm 5 m/s 752 mmHg 83%
    20:00 +14°C° 0 mm 5 m/s 752 mmHg 87%
    21:00 +14°C° 0,1 mm 5 m/s 752 mmHg 87%
    22:00 +14°C° 0,1 mm 5 m/s 752 mmHg 87%
    23:00 +14°C° 0,1 mm 5 m/s 752 mmHg 87%
    Arată mai mult